EN

Hourly Weather Alpicat

Today, 19 January, Tuesday

Time Temperature Precipitation Wind Pressure Humidity
00:00 +2°C° 0 mm 0 mps 743 mmHg 84%
01:00 +2°C° 0 mm 0 mps 742 mmHg 84%
02:00 +3°C° 0 mm 1 mps 742 mmHg 83%
03:00 +3°C° 0 mm 1 mps 742 mmHg 82%
04:00 +3°C° 0 mm 1 mps 741 mmHg 82%
05:00 +1°C° 0 mm 0 mps 741 mmHg 81%
06:00 +1°C° 0 mm 0 mps 741 mmHg 82%
07:00 +2°C° 0 mm 0 mps 741 mmHg 79%
08:00 +3°C° 0 mm 0 mps 741 mmHg 76%
09:00 +4°C° 0 mm 0 mps 741 mmHg 73%
10:00 +6°C° 0 mm 1 mps 741 mmHg 70%
11:00 +8°C° 0 mm 1 mps 740 mmHg 66%
12:00 +9°C° 0 mm 1 mps 740 mmHg 63%
13:00 +9°C° 0 mm 1 mps 740 mmHg 63%
14:00 +10°C° 0 mm 1 mps 739 mmHg 62%
15:00 +9°C° 0 mm 0 mps 738 mmHg 62%
16:00 +9°C° 0 mm 1 mps 738 mmHg 68%
17:00 +7°C° 0 mm 1 mps 738 mmHg 74%
18:00 +6°C° 0 mm 1 mps 738 mmHg 80%
19:00 +5°C° 0 mm 1 mps 738 mmHg 80%
20:00 +5°C° 0 mm 1 mps 738 mmHg 80%
21:00 +5°C° 0 mm 1 mps 738 mmHg 80%
22:00 +5°C° 0 mm 1 mps 738 mmHg 80%
23:00 +4°C° 0 mm 1 mps 737 mmHg 79%

Tomorrow, 20 January, Wednesday

Time Temperature Precipitation Wind Pressure Humidity
00:00 +4°C° 0 mm 1 mps 737 mmHg 78%
01:00 +4°C° 0 mm 1 mps 736 mmHg 77%
02:00 +4°C° 0 mm 1 mps 736 mmHg 76%
03:00 +4°C° 0 mm 1 mps 735 mmHg 74%
04:00 +4°C° 0 mm 1 mps 735 mmHg 74%
05:00 +4°C° 0 mm 1 mps 734 mmHg 73%
06:00 +4°C° 0 mm 1 mps 734 mmHg 72%
07:00 +5°C° 0 mm 1 mps 734 mmHg 71%
08:00 +6°C° 0 mm 1 mps 733 mmHg 70%
09:00 +5°C° 0 mm 0 mps 733 mmHg 69%
10:00 +8°C° 0 mm 1 mps 733 mmHg 65%
11:00 +9°C° 0 mm 1 mps 733 mmHg 61%
12:00 +10°C° 0 mm 1 mps 732 mmHg 57%
13:00 +10°C° 0 mm 1 mps 732 mmHg 59%
14:00 +10°C° 0 mm 1 mps 731 mmHg 61%
15:00 +11°C° 0 mm 1 mps 730 mmHg 63%
16:00 +10°C° 0.1 mm 1 mps 730 mmHg 68%
17:00 +9°C° 0.1 mm 1 mps 730 mmHg 72%
18:00 +8°C° 0.1 mm 1 mps 730 mmHg 76%
19:00 +8°C° 0.2 mm 1 mps 730 mmHg 79%
20:00 +8°C° 0.2 mm 1 mps 730 mmHg 81%
21:00 +8°C° 0.2 mm 1 mps 730 mmHg 83%
22:00 +8°C° 0.1 mm 1 mps 730 mmHg 84%
23:00 +8°C° 0.1 mm 1 mps 730 mmHg 84%

Day after tomorrow, 21 January, Thursday

Time Temperature Precipitation Wind Pressure Humidity
00:00 +8°C° 0.1 mm 1 mps 730 mmHg 85%
01:00 +8°C° 0 mm 1 mps 730 mmHg 86%
02:00 +7°C° 0 mm 0 mps 730 mmHg 87%
03:00 +6°C° 0 mm 0 mps 730 mmHg 88%
04:00 +6°C° 0 mm 0 mps 730 mmHg 88%
05:00 +5°C° 0 mm 0 mps 730 mmHg 89%
06:00 +5°C° 0 mm 0 mps 731 mmHg 89%
07:00 +7°C° 0 mm 1 mps 731 mmHg 88%
08:00 +8°C° 0 mm 1 mps 731 mmHg 86%
09:00 +8°C° 0 mm 1 mps 731 mmHg 84%
10:00 +9°C° 0 mm 2 mps 731 mmHg 78%
11:00 +11°C° 0 mm 3 mps 731 mmHg 72%
12:00 +12°C° 0 mm 4 mps 731 mmHg 66%
13:00 +12°C° 0 mm 4 mps 731 mmHg 66%
14:00 +13°C° 0 mm 4 mps 730 mmHg 66%
15:00 +13°C° 0 mm 4 mps 729 mmHg 66%
16:00 +12°C° 0.3 mm 3 mps 729 mmHg 71%
17:00 +11°C° 0.3 mm 3 mps 729 mmHg 75%
18:00 +10°C° 0.3 mm 2 mps 729 mmHg 80%
19:00 +10°C° 0.3 mm 2 mps 729 mmHg 81%
20:00 +10°C° 0.3 mm 2 mps 729 mmHg 83%
21:00 +10°C° 0.3 mm 2 mps 729 mmHg 84%
22:00 +9°C° 0 mm 2 mps 730 mmHg 85%
23:00 +8°C° 0 mm 2 mps 730 mmHg 85%

22 January, Friday

Time Temperature Precipitation Wind Pressure Humidity
00:00 +8°C° 0 mm 2 mps 730 mmHg 85%
01:00 +8°C° 0 mm 2 mps 729 mmHg 85%
02:00 +7°C° 0 mm 2 mps 729 mmHg 84%
03:00 +7°C° 0 mm 2 mps 729 mmHg 84%
04:00 +8°C° 0 mm 1 mps 729 mmHg 84%
05:00 +8°C° 0 mm 1 mps 728 mmHg 83%
06:00 +8°C° 0 mm 1 mps 728 mmHg 83%
07:00 +8°C° 0.5 mm 2 mps 727 mmHg 85%
08:00 +8°C° 0.5 mm 2 mps 726 mmHg 86%
09:00 +8°C° 0.5 mm 3 mps 725 mmHg 88%
10:00 +8°C° 0.7 mm 4 mps 725 mmHg 83%
11:00 +9°C° 0.7 mm 6 mps 725 mmHg 77%
12:00 +9°C° 0.7 mm 7 mps 724 mmHg 72%
13:00 +8°C° 0 mm 9 mps 724 mmHg 69%
14:00 +8°C° 0 mm 11 mps 725 mmHg 65%
15:00 +8°C° 0 mm 13 mps 725 mmHg 62%
16:00 +7°C° 0 mm 12 mps 726 mmHg 64%
17:00 +6°C° 0 mm 11 mps 727 mmHg 67%
18:00 +5°C° 0 mm 10 mps 728 mmHg 69%
19:00 +3°C° 0 mm 9 mps 729 mmHg 69%
20:00 +3°C° 0 mm 9 mps 729 mmHg 69%
21:00 +4°C° 0 mm 8 mps 730 mmHg 69%
22:00 +3°C° 0 mm 7 mps 731 mmHg 70%
23:00 +3°C° 0 mm 6 mps 731 mmHg 70%

23 January, Saturday

Time Temperature Precipitation Wind Pressure Humidity
00:00 +3°C° 0 mm 5 mps 731 mmHg 71%
01:00 +2°C° 0 mm 5 mps 731 mmHg 73%
02:00 +3°C° 0 mm 4 mps 731 mmHg 76%
03:00 +3°C° 0 mm 4 mps 731 mmHg 78%
04:00 +3°C° 0 mm 4 mps 731 mmHg 77%
05:00 +3°C° 0 mm 4 mps 731 mmHg 76%
06:00 +3°C° 0 mm 4 mps 731 mmHg 75%
07:00 +3°C° 0 mm 5 mps 731 mmHg 74%
08:00 +5°C° 0 mm 5 mps 731 mmHg 73%
09:00 +5°C° 0 mm 5 mps 731 mmHg 71%
10:00 +6°C° 0 mm 7 mps 731 mmHg 67%
11:00 +7°C° 0 mm 8 mps 730 mmHg 62%
12:00 +9°C° 0 mm 10 mps 730 mmHg 57%
13:00 +10°C° 0 mm 9 mps 730 mmHg 58%
14:00 +10°C° 0 mm 8 mps 729 mmHg 59%
15:00 +10°C° 0 mm 7 mps 728 mmHg 60%
16:00 +10°C° 0.1 mm 7 mps 728 mmHg 64%
17:00 +9°C° 0.1 mm 6 mps 728 mmHg 67%
18:00 +8°C° 0.1 mm 5 mps 728 mmHg 71%
19:00 +8°C° 0.2 mm 5 mps 727 mmHg 73%
20:00 +9°C° 0.2 mm 5 mps 727 mmHg 75%
21:00 +9°C° 0.2 mm 5 mps 727 mmHg 76%
22:00 +8°C° 0 mm 5 mps 726 mmHg 78%
23:00 +8°C° 0 mm 5 mps 726 mmHg 79%

24 January, Sunday

Time Temperature Precipitation Wind Pressure Humidity
00:00 +8°C° 0 mm 5 mps 726 mmHg 81%
01:00 +8°C° 0 mm 6 mps 726 mmHg 77%
02:00 +7°C° 0 mm 8 mps 727 mmHg 74%
03:00 +7°C° 0 mm 9 mps 728 mmHg 70%
04:00 +6°C° 0 mm 9 mps 728 mmHg 71%
05:00 +5°C° 0 mm 9 mps 729 mmHg 72%
06:00 +5°C° 0 mm 9 mps 730 mmHg 73%
07:00 +5°C° 0 mm 9 mps 731 mmHg 71%
08:00 +6°C° 0 mm 9 mps 732 mmHg 69%
09:00 +6°C° 0 mm 8 mps 732 mmHg 68%
10:00 +7°C° 0 mm 8 mps 732 mmHg 63%
11:00 +9°C° 0 mm 8 mps 733 mmHg 58%
12:00 +11°C° 0 mm 8 mps 733 mmHg 54%
13:00 +11°C° 0 mm 8 mps 732 mmHg 54%
14:00 +11°C° 0 mm 7 mps 732 mmHg 54%
15:00 +11°C° 0 mm 7 mps 732 mmHg 53%
16:00 +10°C° 0 mm 6 mps 732 mmHg 59%
17:00 +8°C° 0 mm 4 mps 732 mmHg 65%
18:00 +8°C° 0 mm 3 mps 732 mmHg 70%
19:00 +8°C° 0 mm 3 mps 733 mmHg 71%
20:00 +8°C° 0 mm 3 mps 733 mmHg 73%
21:00 +7°C° 0 mm 3 mps 733 mmHg 74%
22:00 +7°C° 0 mm 2 mps 733 mmHg 75%
23:00 +7°C° 0 mm 2 mps 732 mmHg 76%
Show more